Station CRGA2 - Craig, AK Image indicating link to RSS feed of recent meteorological observations for station CRGA2


Conditions at CRGA2 as of
(6:24 am AKDT)
1424 GMT on 07/23/2024:
     

Click on the graph icon in the table below to see a time series plot of the last five days of that observation.

5-day plot - Wind Direction Wind Direction (WDIR): S ( 180 deg true )
5-day plot - Wind Speed Wind Speed (WSPD): 1 kts
5-day plot - Wind Gust Wind Gust (GST): 3 kts
5-day plot - Atmospheric Pressure Atmospheric Pressure (PRES):30.01 in
5-day plot - Air Temperature Air Temperature (ATMP): 52.7 °F
5-day plot - Dew Point Dew Point (DEWP): 52.7 °F
5-day plot - Wind Speed at 10 Meters Wind Speed at 10 meters (WSPD10M): 2 kts
5-day plot - Wind Speed at 20 Meters Wind Speed at 20 meters (WSPD20M): 2 kts
5-day plot -  Wind Speed, Wind Gust and Atmospheric Pressure Combined plot of Wind Speed, Gust, and Air Pressure
Supplemental Measurements
Previous observations
TIME
(AKDT)
5-day plot - Wind Direction
WDIR
 
5-day plot - Wind Speed
WSPD
kts
5-day plot - Wind Gust
GST
kts
5-day plot - Wave Height
WVHT
ft
5-day plot - Dominant Wave Period
DPD
sec
5-day plot - Average Wave Period
APD
sec
5-day plot - Mean Wave Direction
MWD
 
5-day plot - Atmospheric Pressure
PRES
in
5-day plot - Pressure Tendency
PTDY
in
5-day plot - Air Temperature
ATMP
°F
5-day plot - Water Temperature
WTMP
°F
5-day plot - Dew Point
DEWP
°F
5-day plot - Salinity
SAL
psu
5-day plot - Visibility
VIS
nmi
5-day plot - Tide (above MLLW)
TIDE
ft
2024-07-23 05:24 am- 0 3----30.01- 51.8- 51.8---
2024-07-23 04:24 am- 0 2----30.01- 52.2- 52.2---
2024-07-23 03:24 am- 0 0----30.01- 51.8- 51.8---
2024-07-23 02:24 am NE 2 2----30.03- 52.3- 51.6---
2024-07-23 01:24 am N 1 3----30.02- 53.4- 52.2---
2024-07-23 12:24 amNNE 2 2----30.02- 54.3- 51.8---
2024-07-22 11:24 pmNNE 2 3----30.03- 54.5- 51.3---
2024-07-22 10:24 pmNNE 3 4----30.03- 55.4- 50.2---
2024-07-22 09:24 pm NE 2 4----30.03- 56.7- 49.5---
2024-07-22 08:24 pm NE 3 5----30.04- 57.2- 48.2---
2024-07-22 07:24 pm NE 2 7----30.05- 57.2- 49.5---
2024-07-22 06:24 pm N 5 7----30.06- 57.0- 50.5---
2024-07-22 05:24 pm N 2 5----30.06- 58.5- 49.5---
2024-07-22 04:24 pmSSW 1 4----30.07- 59.2- 47.5---
2024-07-22 03:24 pmWSW 2 4----30.07- 59.4- 47.1---
2024-07-22 02:24 pmSSW 3 5----30.07- 59.4- 48.9---
2024-07-22 01:24 pm S 2 4----30.07- 59.2- 48.7---
2024-07-22 12:24 pmSSW 5 10----30.08- 58.3- 50.5---
2024-07-22 11:24 am W 2 5----30.08- 59.4- 48.9---
2024-07-22 10:24 am S 1 4----30.09- 59.7- 47.5---
2024-07-22 09:24 am N 1 3----30.09- 57.9- 51.4---
2024-07-22 08:24 am- 0 1----30.10- 56.5- 52.0---
2024-07-22 07:24 am- 0 4----30.09- 55.6- 51.1---